Regional Weather Roundup
Issued by NWS Grand Forks, ND

Home | Current Version | Previous Version | Text Only | Print | Product List | Glossary On
Versions: 1 2 3 4 5 6 7 8 9 10 11 12 13 14 15 16 17 18 19 20 21 22 23 24 25 26 27 28 29 30 31 32 33 34 35 36 37 38 39 40 41 42 43 44 45 46 47 48 49 50
000
ASUS43 KFGF 051610
RWRFGF
PRAIRIE TO PINES  WEATHER ROUNDUP
NATIONAL WEATHER SERVICE EASTERN NORTH DAKOTA/GRAND FORKS ND
1100 AM CDT TUE MAY 05 2015

 **SATELLITE DATA USED TO AUGMENT SKY COVER AT AUTOMATED STATIONS**
 *****  WEATHER ACROSS EASTERN NORTH DAKOTA  *****

CITY           SKY/WX    TMP DP  RH WIND       PRES   REMARKS
GRAND FORKS    PTSUNNY   68  25  19 S18G24    30.14F
GRAND FRKS AFB SUNNY     67  25  19 S21G26    30.13F
GRAND FRKS NWS   N/A     66 N/A N/A SE18        N/A
DEVILS LAKE    SUNNY     66  34  30 S23       30.08F
FARGO          SUNNY     70  23  17 SE20      30.14F
WAHPETON ARPT  SUNNY     70  19  14 S16       30.14F
$$

 ***** WEATHER ACROSS CENTRAL AND WESTERN NORTH DAKOTA  *****

CITY           SKY/WX    TMP DP  RH WIND       PRES   REMARKS
BISMARCK       SUNNY     68  38  33 S20G30    30.04F
MINOT          CLOUDY    68  32  26 S18       29.98F
JAMESTOWN      SUNNY     68  29  23 S20G26    30.10F
MINOT AFB      PTSUNNY   66  33  29 S16       29.97F
GARRISON         N/A     66  35  31 S18       29.99F
WILLISTON      SUNNY     68  33  27 S15G26    29.90F
DICKINSON      SUNNY     64  36  35 S25G35    29.92F
HETTINGER      SUNNY     63  41  44 SE20G30   29.96F
$$

 *****  OTHER AIRPORT OBSERVATIONS IN OUR AREA  *****

CITY           SKY/WX    TMP DP  RH WIND       PRES   REMARKS
WALHALLA       FAIR      68  30  24 S21G26    30.10F
GRAFTON AIRPOR FAIR      66  30  26 S22G30    30.14F
VALLEY CITY AR FAIR      66  30  26 S18G24    30.13F
CANDO          FAIR      66  32  28 S24G31    30.08F
CAVALIER APRT  FAIR      68  28  22 S25G32    30.11F
GWINNER        SUNNY     68  32  26 SE16      30.14F
SHEYENNE NWR     N/A     69  26  20 SE14      29.95
ROLLA          NOT AVBL
 ***** THE ABOVE OBSERVATIONS ARE NON NWS ARE NOT QUALITY
       CONTROLLED AND MAY MIS-REPORT RAIN FOR SNOW...
$$

  *****  WEATHER ACROSS NORTHERN MINNESOTA  *****

CITY           SKY/WX    TMP DP  RH WIND       PRES   REMARKS
FLAG ISLAND    SUNNY     54  34  47 SE9       30.18S
WARROAD        SUNNY     68  34  28 S9G17     30.18S
ROSEAU         SUNNY     70  25  18 S15G24    30.16F
HALLOCK        SUNNY     70  19  14 S23G32    30.13F
THF RVR FALLS  SUNNY     68  25  19 S18G24    30.17F
BAUDETTE       SUNNY     68  26  20 S12G22    30.19F
WASKISH        SUNNY     68  30  24 SE9G17    30.20F
CROOKSTON      MOSUNNY   70  23  17 S18G25    30.16F
$$
  *****  WEATHER ACROSS CENTRAL AND WEST MINNESOTA  *****

CITY           SKY/WX    TMP DP  RH WIND       PRES   REMARKS
FOSSTON        SUNNY     66  19  16 SE17      30.18F
BEMIDJI        SUNNY     66  22  19 SE17G25   30.19F
PARK RAPIDS    SUNNY     68  19  15 SE18      30.19F
ELBOW LAKE     FAIR      66  30  25 SE13G20   30.15F
WADENA         SUNNY     64  28  25 SE14      30.18F
DETROIT LAKES  SUNNY     64  23  20 SE18G25   30.18F
MOORHEAD       SUNNY     68  21  17 S18G25    30.16S
FERGUS FALLS   SUNNY     66  28  24 SE17      30.16F
MORRIS MN      SUNNY     72  27  18 SE17      30.13F
STAPLES        SUNNY     64  23  20 SE10G18   30.19F
$$
  *****  WEATHER ELSEWHERE ACROSS MINNESOTA  *****

CITY           SKY/WX    TMP DP  RH WIND       PRES   REMARKS
DULUTH         SUNNY     64  30  27 SE10      30.26F
INTRNTL FALLS  SUNNY     67  25  20 S6G18     30.22S
ELY            SUNNY     64  19  17 SE8       30.25F
CLOQUET        SUNNY     64  27  24 E12G17    30.25F
WHEATON        SUNNY     68  30  24 SE17G24   30.14F
BRAINERD       SUNNY     63  29  27 SE16G23   30.22S
HIBBING        SUNNY     66  21  18 SE15      30.24F
ALEXANDRIA     SUNNY     68  29  23 E21       30.17F
SAINT CLOUD    SUNNY     65  39  38 E9G20     30.19S
MINNEAPOLIS    MOSUNNY   65  45  48 E17G24    30.20S
$$

  *****  WEATHER ACROSS SOUTH DAKOTA  *****

CITY           SKY/WX    TMP DP  RH WIND       PRES   REMARKS
SIOUX FALLS    PTSUNNY   67  46  47 E13       30.08S
BROOKINGS      MOSUNNY   68  34  28 E17G24    30.10F
WATERTOWN      SUNNY     67  27  22 E16G22    30.11F
HURON          SUNNY     71  35  26 SE13      30.06F
SISSETON         N/A     67  28  23 SE14      30.12F
ABERDEEN       SUNNY     71  28  20 SE22G29   30.09F
MITCHELL       MOSUNNY   69  36  29 E15       30.07F
PIERRE         PTSUNNY   65  37  35 SE17G25   30.03F
MOBRIDGE       SUNNY     69  35  28 SE22      30.02F
RAPID CITY     PTSUNNY   58  43  57 SE17      29.98S
$$

  *****  SOME WEATHER IN NEARBY STATES *****

CITY           SKY/WX    TMP DP  RH WIND       PRES   REMARKS
GLASGOW MT     SUNNY     62  39  42 SE16      29.80F
GREAT FALLS MT SUNNY     62  36  37 NE3       29.78F
CHEYENNE WY    FOG       45  44  97 S12       29.99S VSB 1/4
SCOTTSBLUFF NE CLOUDY    55  46  71 SE6       29.98F
OMAHA NE       CLOUDY    67  60  78 S7        30.09S
DES MOINES IA  CLOUDY    70  61  73 S10       30.11S
DAVENPORT IA   CLOUDY    60  57  89 NE8       30.19R FOG
CHICAGO IL     FOG       51  50  96 NE7       30.24R VSB 1/2
EAU CLAIRE WI  SUNNY     66  26  22 SE14G21   30.24F
LA CROSSE WI   LGT RAIN  54  49  83 SE10      30.26R
$$

  *****  SOME NATIONAL WEATHER *****

CITY           SKY/WX    TMP DP  RH WIND       PRES   REMARKS
LA GUARDIA NY  PTSUNNY   75  53  46 NE5       30.22R
RALEIGH NC     MOSUNNY   77  58  51 SW12G20   30.34F
ATLANTA GA     SUNNY     75  54  47 VRB7      30.33F
NEW ORLEANS LA MOSUNNY   81  61  50 E13G22    30.18R
OKLAHOMA CITY  PTSUNNY   70  57  63 SE22G28   30.03S
ALBUQUERQUE NM MOSUNNY   57  42  57 SW12      29.96R
SALT LAKE CITY CLOUDY    62  47  57 N7        29.86S
LOS ANGELES CA CLOUDY    60  49  66 SE5       30.00S
BOISE ID       SUNNY     59  35  40 NW14      29.86S
SEATTLE WA     PTSUNNY   49  45  86 SW15G21   30.03R
$$

*** WEATHER ACROSS MANITOBA...SASKATCHEWAN AND ONTARIO ***
                ***ONTARIO***

CITY           SKY/WX    TMP DP  RH WIND       PRES   REMARKS
GERALDTON      MOSUNNY   57  27  30 NW5       30.28S
THUNDER BAY    SUNNY     63  34  34 NE10      30.28F
SIOUX LOOKOUT  MOSUNNY   64  30  27 W9        30.22F
TORONTO        CLOUDY    59  52  77 E9        30.32R
BIG TROUT LK   SUNNY     43  19  39 W16G23    30.20F
PICKLE LAKE    PTSUNNY   52  28  40 W6        30.23S
DRYDEN         SUNNY     64  28  25 SW13      30.21F
KENORA         SUNNY     63  32  31 SW8       30.20F
$$
                *** MANITOBA***

CITY           SKY/WX    TMP DP  RH WIND       PRES   REMARKS
BRANDON        MOSUNNY   66  32  28 S22G32    30.02F
DAUPHIN        CLOUDY    68  32  26 SW18G24   29.98F
ISLAND LAKE    CLOUDY    43  19  39 SE5       30.20F
PILOT MOUND      N/A     66  28  24 S28         N/A
THE PAS        LGT RAIN  36  34  93 E10G17    30.12F
THOMPSON       MOSUNNY   41  16  36 NW7       30.20S
WINNIPEG       MOSUNNY   70  28  21 S22G30    30.11F
LYNN LAKE      SUNNY     39  16  38 NW9       30.18S
GILLAM         MOSUNNY   34  18  51 W12       30.20S
$$
                ***SASKATCHEWAN***

CITY           SKY/WX    TMP DP  RH WIND       PRES   REMARKS
ESTEVAN        MOSUNNY   66  32  28 S22       29.90F
KINDERSLEY     MOSUNNY   63  43  48 SE9       29.70F
LLOYDMINSTER   MOSUNNY   52  37  58 E23G33    29.75F
PRINCE ALBERT  MOSUNNY   52  37  58 E21G30    29.90F
REGINA         PTSUNNY   61  37  41 SE23G30   29.84F
YORKTON        SUNNY     63  30  29 S14G25    29.90F
N. BATTLEFORD  SUNNY     54  39  58 E26G38    29.79F
LA RONGE       MOSUNNY   45  21  39 NE12G18   30.09F
SASKATOON      MOSUNNY   57  43  58 E16       29.80F
SWIFT CURRENT  SUNNY     66  41  39 S14       29.73S
$$
NOTE: THESE ARE AUTOMATED STATIONS WITH LIMITED QUALITY CONTROL
      "FAIR" INDICATES FEW OR NO CLOUDS BELOW 12,000 FEET WITH NO
      SIGNIFICANT WEATHER AND/OR OBSTRUCTIONS TO VISIBILITY.
      SKY/WX - SKY CONDITION AND SIGNIFICANT WEATHER.
      TMP - AIR TEMPERATURE.    DP   - DEWPOINT TEMPERATURE.
      RH  - RELATIVE HUMIDITY.  PRES - PRESSURE.
      HX  - HEAT INDEX.         WCI  - WIND CHILL INDEX.
$


USA.gov is the U.S. government's official web portal to all federal, state and local government web resources and services.